Temp
11 11 12 12 11 12 11 12 12 12 12 12 13 13 13 12 12 12 16 17 17 16 16 18 19 21 23 24 24 25 27 28 30 30 29 28 28 27 26 28 27 27 26 24 22
12 12 12 12 12 12 12 12 12 13 13 13 13 13 12 12 14 16 16 16 15 15 18 20 22 23 24 25 25 25 27 29 29 28 28 27 28 27 27 27 27 26 23 22 21
11 10 11 12 12 12 12 13 12 12 13 13 13 12 12 12 16 18 16 15 15 16 18 20 23 24 25 25 25 26 27 26 25 25 27 27 26 26 27 27 28 27 26 23 22
11 10 10 10 12 12 12 13 12 12 12 12 12 11 11 12 17 18 15 15 16 16 18 20 22 23 25 25 26 25 24 25 23 22 24 26 26 26 26 26 25 24 24 23 22
11 10 10 11 11 12 12 12 12 11 11 12 11 10 12 13 18 15 15 16 15 16 19 21 23 24 25 27 25 26 23 22 21 22 22 22 25 26 25 25 24 23 22 23 23
12 12 11 11 12 12 11 12 11 11 11 11 10 11 10 15 16 16 15 15 17 18 19 21 24 26 26 25 26 25 24 22 22 22 22 23 24 23 26 24 23 22 23 23 23
13 13 12 12 12 11 12 12 12 11 10 12 10 11 14 17 16 16 16 18 18 19 21 21 21 24 25 23 23 24 23 23 22 22 22 21 24 23 25 24 24 24 23 23 23
14 13 13 13 13 13 13 12 12 12 11 12 12 12 16 16 16 16 17 17 17 17 19 19 20 22 24 23 23 24 25 25 23 22 21 22 27 26 24 23 24 25 24 23 22
14 14 14 14 13 13 13 13 13 13 13 12 12 14 17 16 17 17 19 19 18 18 18 19 20 22 22 24 25 24 27 26 22 21 21 22 27 25 24 23 24 25 25 24 22
14 14 15 15 15 15 15 14 14 13 13 14 15 17 18 18 17 17 17 19 20 20 20 21 22 23 24 25 25 25 26 26 26 21 22 23 24 26 24 24 24 25 24 23 22
14 14 14 15 15 15 14 15 16 17 17 16 17 17 18 17 15 18 18 20 21 22 22 21 21 22 24 24 25 27 27 27 23 20 20 24 24 25 26 25 24 24 23 22 22
14 14 14 13 14 15 14 17 14 15 17 17 17 18 17 16 19 19 19 22 22 21 21 22 21 19 20 21 24 24 26 25 22 20 20 24 24 25 25 23 22 22 22 21 20
14 15 14 14 14 14 15 14 13 12 19 17 17 18 17 18 18 18 20 20 21 21 21 22 19 18 20 22 23 22 25 23 21 21 21 21 25 24 22 21 20 20 21 21 20
14 15 14 15 15 14 15 13 12 13 18 18 18 18 18 18 17 17 17 19 19 20 20 18 17 19 20 20 20 23 19 19 20 22 24 22 25 26 23 21 20 21 20 20 20
14 15 14 15 14 16 12 13 13 13 16 18 17 17 18 19 18 17 17 20 19 17 18 16 18 19 20 17 18 19 18 18 18 20 19 22 20 26 21 21 21 22 21 20 19
14 15 15 14 14 12 12 13 13 16 15 15 17 17 19 19 18 18 18 18 18 19 18 16 16 16 17 16 17 17 18 18 18 19 18 20 20 23 25 22 23 22 21 19 18
14 14 15 14 15 13 13 14 16 16 16 16 16 17 18 18 18 18 19 19 19 16 14 18 16 16 16 17 16 17 18 20 19 19 21 15 17 23 22 20 20 21 20 19 18
15 14 14 13 12 13 13 18 16 15 16 16 16 18 17 17 17 18 19 19 17 19 19 18 16 16 15 16 18 17 18 20 21 23 23 16 20 22 19 18 19 20 20 19 17
14 14 14 12 12 12 17 15 15 16 16 17 17 19 18 18 18 19 19 20 17 17 20 20 17 14 14 15 16 17 18 17 19 18 19 23 22 21 19 18 18 18 19 17 17
15 15 14 13 12 13 18 14 15 14 15 17 19 19 20 19 19 20 19 16 17 16 17 19 17 15 14 15 15 16 17 18 18 19 21 23 22 21 18 18 18 18 17 18 17
15 19 13 13 13 18 15 14 15 15 15 17 18 18 19 19 19 19 18 16 16 16 17 18 19 15 14 15 18 16 17 17 17 19 21 22 22 20 15 18 19 19 18 18 18
17 19 14 13 17 18 16 16 13 15 16 16 17 17 18 18 19 19 18 17 15 16 18 16 19 17 18 14 14 15 18 19 19 20 18 18 19 20 19 18 18 19 20 20 19
19 19 16 14 18 17 14 14 14 15 15 16 16 16 16 17 18 17 16 14 15 15 17 17 18 18 17 15 14 15 17 17 17 16 18 19 22 20 20 20 19 19 19 19 19
19 18 19 18 17 17 17 15 15 13 14 14 15 15 16 17 16 16 16 14 13 14 11 14 17 19 20 18 18 16 16 16 17 16 19 20 21 22 22 20 20 18 19 18 18
17 15 13 18 17 17 17 16 16 15 15 15 15 15 16 16 16 16 15 14 13 12 14 15 16 15 15 17 16 16 17 16 14 16 18 20 20 22 20 18 17 17 17 16 16
18 17 15 16 15 17 16 16 16 15 15 16 16 15 16 16 16 17 16 15 16 13 14 14 15 14 14 16 15 14 15 16 17 16 16 17 17 19 16 16 16 15 14 14 14
11 11 16 12 17 17 16 16 15 15 14 15 15 16 16 15 15 15 15 16 16 16 15 15 15 14 16 15 15 16 17 16 16 16 16 15 17 14 14 13 13 13 13 13 13
Height
774 772 770 769 768 768 769 770 771 772 774 776 777 780 783 786 788 790 788 785 786 786 787 788 790 790 789 788 789 789 792 785 776 774 774 779 784 785 787 786 788 790 792 800 803
775 772 770 768 767 767 767 769 770 772 773 775 776 779 783 786 789 786 784 783 785 786 787 786 786 787 786 784 787 788 789 777 771 775 777 780 779 785 789 789 789 793 800 803 806
777 774 769 766 765 766 769 769 772 773 774 774 777 780 784 787 787 778 780 783 783 785 787 787 783 784 783 782 784 783 787 782 786 786 778 784 786 785 787 792 783 788 791 802 804
777 774 769 765 765 767 769 771 772 774 774 775 778 781 783 789 783 776 779 781 782 785 787 786 783 784 783 786 779 790 790 788 794 795 789 788 785 788 788 788 791 794 797 799 802
778 775 771 768 768 769 771 772 773 775 776 777 781 783 786 790 777 778 779 780 781 784 784 784 781 779 781 776 781 781 791 796 799 797 797 795 792 788 790 788 793 795 798 799 799
781 778 776 773 773 774 775 775 776 777 781 780 782 787 793 785 778 778 778 780 781 783 783 783 777 774 774 779 779 782 790 797 800 799 799 798 793 796 785 789 794 796 796 797 799
784 784 779 776 778 778 778 779 779 782 783 781 785 789 790 778 778 778 779 779 781 782 782 783 782 781 777 788 786 785 797 798 801 801 801 801 796 794 784 790 791 792 795 797 798
786 786 785 784 783 782 781 782 782 785 784 784 788 792 779 777 778 779 779 780 781 781 783 784 784 783 779 784 788 788 789 798 800 802 803 802 786 782 786 789 789 787 790 794 795
787 786 785 786 783 783 782 781 783 784 786 786 788 786 776 778 779 780 778 778 780 781 783 784 785 784 788 783 788 790 786 788 803 804 804 801 785 784 787 788 787 785 784 790 794
787 787 785 784 784 783 781 781 781 783 785 786 784 782 778 779 780 780 779 779 778 780 784 783 783 783 781 779 793 787 785 787 787 806 802 798 792 781 786 786 784 783 784 789 793
787 786 786 784 783 784 783 783 783 780 779 781 779 776 777 781 781 780 778 778 778 776 781 783 789 790 781 779 776 770 775 782 795 806 807 793 789 783 777 779 783 781 784 790 792
786 784 786 785 782 782 781 779 782 782 780 780 780 779 782 782 778 779 778 777 778 783 783 785 792 796 796 790 783 783 783 787 799 804 805 789 787 776 773 781 784 784 787 790 796
786 781 785 784 783 783 782 784 782 783 775 782 782 781 782 781 782 783 779 780 780 786 784 784 801 804 795 792 789 794 788 795 803 801 801 801 777 777 783 784 789 791 789 791 795
786 782 784 783 785 784 784 784 783 782 780 787 782 783 781 781 787 787 786 785 788 791 792 801 807 803 798 801 802 796 809 809 807 802 796 799 793 767 775 784 788 788 790 792 795
786 783 784 783 784 784 787 784 784 785 796 791 787 784 782 782 786 789 789 785 791 800 801 815 808 805 802 815 811 811 814 812 812 809 813 800 812 768 782 784 783 784 788 792 797
787 784 784 784 784 786 785 785 787 790 804 799 790 788 782 782 788 789 789 789 795 797 803 814 814 814 816 818 813 816 813 813 814 814 823 808 812 784 769 780 776 781 787 793 799
789 786 784 784 785 785 786 785 789 793 800 798 795 791 787 792 791 791 791 793 795 816 822 810 817 819 818 815 818 817 816 813 819 820 805 827 821 777 777 781 781 781 786 793 799
791 789 786 785 785 784 785 783 796 802 799 799 795 790 794 795 797 794 792 795 802 797 800 809 825 820 822 819 814 816 815 809 814 801 792 823 803 779 783 785 785 782 785 793 799
790 791 791 787 786 786 783 796 804 798 801 794 793 787 794 794 793 790 794 796 805 806 798 802 817 825 825 822 822 816 818 819 815 815 812 783 778 778 785 788 789 790 791 797 800
789 791 792 788 787 788 785 804 806 809 806 800 789 792 787 793 793 792 796 807 807 811 808 799 814 824 827 825 825 822 821 817 817 817 805 778 783 782 792 790 790 793 796 795 797
788 783 790 788 788 783 795 806 807 808 808 802 798 795 794 794 794 795 800 812 809 809 806 806 802 827 826 823 812 824 819 820 819 810 801 789 783 782 799 788 788 787 789 789 792
786 787 788 787 786 787 797 802 810 807 805 804 801 801 798 801 799 799 801 807 814 812 806 811 802 812 811 824 825 821 811 807 812 805 810 813 800 780 783 788 791 787 786 787 789
785 787 788 787 789 797 808 810 811 808 810 806 805 806 804 802 804 804 808 817 816 814 810 809 807 808 815 824 825 821 812 810 814 818 810 805 784 781 781 783 785 786 785 784 785
790 792 790 791 797 796 801 809 810 814 813 813 811 809 806 806 808 809 812 819 821 818 825 819 807 801 795 800 800 813 811 812 811 816 798 790 779 774 773 778 780 785 784 784 785
798 809 812 799 801 803 802 806 809 810 812 812 811 811 811 809 811 811 815 819 821 824 821 819 813 813 814 807 809 807 803 807 813 800 795 779 777 770 776 785 789 788 788 790 788
801 803 809 809 811 803 808 808 808 811 812 812 811 813 811 810 811 810 812 815 811 823 820 821 815 818 812 801 807 810 803 799 795 797 796 792 788 781 790 791 793 794 796 794 792
814 813 806 815 806 806 810 812 813 814 815 812 811 810 811 814 815 815 814 814 814 813 816 817 815 816 804 807 804 796 785 785 789 789 791 793 787 796 797 800 802 802 800 798 796
Wind_Speed
9 7 5 2 7 11 12 13 13 14 13 11 14 17 20 16 11 9 13 2 7 5 3 5 6 9 11 7 4 1 6 9 9 10 7 10 7 4 2 2 2 3 5 5 13
12 9 7 4 1 3 10 11 12 13 12 10 10 18 20 15 12 15 8 10 6 4 7 10 11 14 8 9 5 6 9 9 6 7 6 10 5 7 5 6 6 6 6 7 11
14 11 7 3 4 4 6 10 11 8 10 10 12 17 19 12 10 8 14 10 6 6 7 8 9 14 8 8 7 6 5 3 4 3 3 8 6 3 4 5 2 1 6 6 9
16 14 14 7 8 6 5 7 8 12 15 12 12 11 15 9 7 7 12 9 8 8 9 8 12 13 11 12 8 7 1 4 2 3 2 8 3 4 5 5 5 4 2 5 7
18 16 18 16 15 10 7 9 9 13 13 16 12 16 12 6 7 6 7 7 9 10 13 10 14 13 12 13 9 4 6 4 3 4 3 2 4 2 5 3 2 2 4 5 6
14 22 17 16 19 14 12 12 8 15 16 10 19 21 3 11 2 3 5 8 10 13 12 9 10 5 6 7 8 5 7 7 2 3 2 3 3 3 3 5 4 2 4 5 6
12 16 20 15 14 11 11 12 14 12 14 21 14 13 12 2 1 2 8 8 10 11 11 7 6 7 10 8 6 12 8 5 2 1 1 3 6 8 5 5 5 3 3 5 7
9 9 10 7 8 6 7 7 4 5 9 11 12 14 2 2 0 3 9 9 7 6 4 3 3 4 1 10 6 6 4 6 4 2 2 3 3 5 6 8 8 5 5 5 8
5 6 5 4 5 4 2 2 4 6 8 11 10 13 5 1 3 3 7 9 10 9 5 5 1 3 5 9 7 6 8 12 5 1 2 6 4 4 7 7 8 9 8 5 6
4 3 5 5 4 5 3 0 3 6 6 9 7 6 3 3 2 3 7 7 5 10 7 4 3 6 6 10 10 12 8 4 6 3 4 7 12 7 8 9 11 11 7 5 6
7 6 5 5 6 4 2 3 5 4 5 4 3 6 8 3 2 4 3 8 8 7 8 5 3 8 12 1 3 3 7 6 4 2 4 7 11 12 10 11 11 9 4 3 6
6 5 4 4 6 3 2 3 3 2 8 6 3 7 3 3 7 6 2 4 6 7 3 5 5 5 2 1 5 4 5 4 5 2 3 8 14 14 10 7 4 2 3 5 7
8 7 4 3 2 1 4 4 2 3 3 4 4 4 2 5 5 6 5 2 3 4 1 4 5 1 2 4 6 4 3 3 2 3 4 9 13 7 4 3 3 2 2 6 8
8 6 6 1 1 2 2 1 2 3 2 7 5 4 2 2 5 6 5 3 3 7 8 7 2 2 3 4 6 4 3 3 2 3 3 3 6 7 8 6 5 6 6 7 8
7 6 2 2 2 1 1 1 1 1 3 6 4 4 4 3 6 6 6 4 6 6 2 2 3 3 3 4 6 5 1 3 2 2 4 5 3 3 3 6 8 8 8 8 8
9 6 2 2 2 1 0 2 0 2 4 2 3 3 3 7 3 2 1 7 3 7 13 5 2 4 3 5 5 7 2 1 1 1 3 2 3 4 3 1 4 9 9 9 8
4 10 5 2 1 1 1 3 1 3 2 3 4 4 5 5 4 2 2 5 1 4 1 4 3 2 1 2 2 2 0 0 1 2 2 3 3 7 3 2 1 10 11 10 10
1 6 8 4 1 1 1 2 4 1 2 2 2 3 4 3 3 2 4 4 3 1 3 5 2 2 2 2 2 2 2 2 4 2 2 4 6 2 4 1 2 5 9 10 10
3 1 6 8 1 2 3 4 3 4 3 2 3 1 3 2 1 2 2 2 3 4 2 4 3 3 2 1 3 4 4 2 2 1 3 4 5 6 2 3 3 5 7 9 9
3 3 4 4 0 3 3 4 2 3 4 3 3 3 2 3 2 3 4 2 2 3 4 1 3 0 2 2 2 3 1 1 1 3 4 5 4 2 2 1 4 6 9 10 10
4 2 4 3 2 0 4 4 4 2 2 4 4 2 3 2 2 2 3 3 2 2 2 2 2 3 1 5 0 3 2 2 3 3 3 6 2 2 4 0 3 6 9 11 12
3 3 5 5 1 3 4 3 2 2 1 2 2 4 4 3 2 2 1 4 3 3 2 3 3 2 2 2 2 3 3 6 3 4 1 3 6 3 4 4 2 3 3 8 9
2 3 4 3 4 5 3 4 4 4 5 4 2 4 1 2 0 1 2 2 2 2 2 1 2 2 3 3 3 5 9 7 2 1 7 5 1 4 6 5 4 6 9 11 7
3 2 4 4 3 7 4 3 3 2 2 2 2 1 0 1 3 1 1 1 3 2 4 3 3 7 4 3 3 4 9 11 10 4 7 12 14 9 6 6 11 11 8 6 8
5 4 3 3 5 5 2 1 2 1 1 1 2 3 2 0 1 1 1 2 1 2 1 3 4 2 9 8 6 9 10 14 16 18 9 15 14 13 14 11 6 9 7 9 10
2 1 2 3 4 2 2 1 1 3 2 2 2 1 0 1 2 1 2 4 1 4 3 2 2 2 5 2 7 12 15 17 19 20 18 21 22 10 8 8 9 9 9 10 11
3 1 3 2 1 4 4 2 1 2 1 1 1 1 1 3 3 4 5 4 3 2 6 3 2 1 4 2 7 12 12 18 12 11 10 14 10 8 6 6 6 7 9 11 12
Wind_Direction
29 27 25 333 256 240 237 235 228 215 215 222 224 212 196 198 201 203 221 198 191 205 178 181 205 195 190 183 211 230 247 227 210 215 143 157 163 146 93 167 176 96 38 77 135
24 25 21 349 315 223 208 194 188 199 205 209 217 195 187 194 196 220 217 208 190 224 202 186 184 178 191 187 188 224 240 237 24 41 158 169 191 155 198 187 184 161 114 127 153
23 15 11 357 202 161 181 179 195 198 197 189 169 177 180 177 212 234 203 194 196 190 197 209 201 190 184 176 185 179 259 98 74 53 137 155 159 177 215 213 350 187 149 162 182
24 27 32 40 138 138 145 150 159 148 134 115 140 141 140 208 214 121 176 204 193 185 182 195 208 194 192 192 168 182 82 341 135 50 172 174 126 205 238 66 92 88 73 181 198
33 38 42 79 91 104 119 137 145 139 114 101 128 138 125 232 255 170 196 211 178 181 186 191 184 196 202 184 176 201 135 101 84 78 55 326 220 301 232 156 205 223 210 217 218
41 47 48 85 86 79 85 103 115 123 108 99 140 133 224 243 92 187 196 182 181 182 178 200 199 220 173 161 210 117 132 121 82 67 50 284 239 298 163 153 141 130 205 213 221
42 58 63 86 77 69 81 106 101 107 90 114 122 184 236 305 13 154 166 173 172 183 175 198 288 222 153 141 132 134 123 136 114 14 254 314 242 234 152 180 167 175 219 241 236
33 57 84 80 44 79 114 127 141 143 172 207 215 215 280 73 85 143 156 142 153 149 130 116 211 126 310 118 125 162 174 191 124 272 170 276 264 156 166 188 213 227 264 270 246
41 47 24 35 19 30 342 166 174 183 184 202 197 226 89 103 158 107 164 139 133 120 104 114 304 129 155 174 150 188 203 216 153 105 283 232 289 129 187 210 238 255 278 273 234
357 359 356 346 1 12 5 143 162 144 173 195 241 213 165 112 96 111 109 125 130 130 124 173 207 178 195 190 187 187 207 213 222 108 240 242 259 248 199 231 262 276 281 275 214
332 313 316 311 310 314 194 231 201 158 65 21 50 94 101 86 203 90 98 124 133 177 163 167 192 187 187 28 32 123 206 211 114 105 289 253 271 271 259 248 266 259 266 215 180
342 327 340 334 327 297 344 327 18 38 82 50 53 90 72 304 126 64 349 169 177 145 141 172 157 57 81 158 116 135 178 160 121 131 287 290 279 269 270 258 276 253 193 158 144
359 312 355 311 309 42 117 110 124 327 118 61 47 19 9 336 47 19 352 100 100 105 138 166 91 125 209 137 140 66 298 96 6 302 238 294 266 201 192 194 167 179 115 152 161
353 324 356 167 91 123 34 9 354 339 111 27 8 46 350 337 65 10 13 21 60 98 78 74 79 118 129 92 331 173 42 68 7 328 298 342 293 208 172 190 206 176 175 152 147
358 334 36 205 99 248 199 328 306 284 94 356 9 324 6 69 134 43 21 39 79 85 223 75 99 81 97 17 330 72 64 51 19 324 322 170 253 246 107 219 211 197 176 163 158
19 47 84 357 28 87 11 142 230 260 64 50 335 347 138 53 66 115 100 68 64 72 67 89 89 28 62 60 50 130 166 104 127 287 237 82 241 276 195 68 176 186 175 168 162
37 45 56 69 2 324 61 255 15 47 264 29 18 8 82 41 71 37 88 85 75 93 45 127 53 90 341 143 148 237 209 158 273 199 284 176 242 265 153 153 238 189 181 177 172
311 52 25 49 62 73 280 204 59 312 38 117 301 79 70 356 64 78 113 117 71 291 151 161 206 176 29 335 332 171 271 274 260 253 23 176 236 249 110 243 190 241 183 179 183
230 16 13 339 1 145 251 49 39 15 355 336 188 115 102 94 24 133 71 92 49 5 283 161 131 131 49 325 310 139 216 24 298 192 260 226 245 166 15 185 202 197 186 193 196
168 169 17 3 79 233 81 84 67 13 333 286 358 330 144 100 189 206 176 50 77 14 334 79 117 43 94 293 80 312 35 190 197 263 253 218 263 286 30 247 201 201 211 207 205
214 214 13 100 141 296 83 91 104 65 359 2 33 49 49 81 5 95 76 100 39 37 341 331 279 108 214 199 242 150 213 238 301 278 287 304 98 95 182 151 228 214 212 217 216
277 46 354 157 51 60 62 51 345 66 80 96 44 45 43 46 79 87 81 40 18 349 3 30 327 161 57 87 332 299 278 245 249 168 272 298 281 117 58 33 356 314 274 252 234
35 14 17 255 61 65 83 79 48 23 23 8 54 13 11 102 158 91 111 63 18 340 351 63 207 207 184 179 197 232 204 228 201 312 238 269 241 128 120 106 80 323 313 308 247
309 19 23 56 53 101 108 62 95 73 72 22 43 325 329 72 25 117 124 84 8 359 7 315 273 260 278 36 112 196 206 211 205 202 238 229 266 245 262 314 335 344 314 290 284
12 41 4 19 47 67 105 89 106 95 87 34 110 58 20 327 132 153 84 160 167 122 299 301 282 308 296 284 252 264 237 213 214 225 241 266 276 295 327 339 347 323 343 327 316
19 329 140 55 345 332 344 51 127 131 326 56 355 73 281 292 345 44 194 215 257 179 218 181 262 331 278 274 259 257 254 250 242 247 258 271 281 329 16 342 334 357 355 353 349
24 291 279 159 74 307 28 57 2 311 52 34 52 255 280 40 360 338 305 299 323 280 210 230 253 277 263 333 306 270 252 237 231 242 255 256 275 4 1 18 41 32 20 15 7